Regional Weather Roundup
Issued by NWS

Home | Current Version | Previous Version | Graphics & Text | Print | Product List | Glossary Off
Versions: 1 2 3 4 5 6 7 8 9 10 11 12 13 14 15 16 17 18 19 20 21 22 23 24 25 26 27 28 29 30 31 32 33 34 35 36 37 38 39 40 41 42 43 44 45 46 47 48 49 50

410
ASUS43 KMKX 250021
RWRWI

WISCONSIN REGIONAL WEATHER ROUNDUP
NATIONAL WEATHER SERVICE MILWAUKEE/SULLIVAN WI
700 PM CDT MON APR 24 2017

NOTE: "FAIR" INDICATES FEW OR NO CLOUDS BELOW 12,000 FEET WITH NO
SIGNIFICANT WEATHER AND/OR OBSTRUCTIONS TO VISIBILITY.

WIZ001-002-006>008-014>016-023>028-250100-
NORTHWEST WISCONSIN

CITY           SKY/WX    TMP DP  RH WIND       PRES   REMARKS
SUPERIOR ARPT  CLOUDY    37  34  90 NE17G31   29.70S WCI  27
6HR MIN TEMP:  37; 6HR MAX TEMP:  38;

ASHLAND        CLOUDY    40  34  79 NE9       29.70F WCI  34
6HR MIN TEMP:  40; 6HR MAX TEMP:  47;

HAYWARD        CLOUDY    64  30  27 S7        29.64F
6HR MIN TEMP:  63; 6HR MAX TEMP:  67;

SIREN          CLOUDY    66  28  23 S9        29.61F
6HR MIN TEMP:  64; 6HR MAX TEMP:  69;

CUMBERLAND     CLOUDY    61  34  36 SE8       29.64S
RICE LAKE      CLOUDY    65  31  27 SE12      29.65F
6HR MIN TEMP:  60; 6HR MAX TEMP:  68;

CHETEK         CLOUDY    64  34  32 SE8       29.64F
6HR MIN TEMP:  61; 6HR MAX TEMP:  68;

LADYSMITH      CLOUDY    64  32  29 SE6       29.68F
6HR MIN TEMP:  60; 6HR MAX TEMP:  66;

EAU CLAIRE     CLOUDY    67  29  24 SE12      29.63F
6HR MIN TEMP:  64; 6HR MAX TEMP:  69;

MENOMONIE      CLOUDY    66  32  28 SE12      29.63F
6HR MIN TEMP:  65; 6HR MAX TEMP:  71;

NEW RICHMOND   CLOUDY    65  30  27 S8        29.62S
OSCEOLA        CLOUDY    65  32  28 SE9       29.61F
6HR MIN TEMP:  65; 6HR MAX TEMP:  71;

$$

WIZ003>005-009-010-017-018-250100-
NORTH CENTRAL WISCONSIN

CITY           SKY/WX    TMP DP  RH WIND       PRES   REMARKS
MANITOWISH WTR CLOUDY    59  34  38 SE8       29.70F
6HR MIN TEMP:  58; 6HR MAX TEMP:  65;

ARBOR VITAE    CLOUDY    62  35  36 SE12G18   29.71F
6HR MIN TEMP:  61; 6HR MAX TEMP:  67;

WOODRUFF       CLOUDY    62  35  36 SE12G18   29.71F
6HR MIN TEMP:  61; 6HR MAX TEMP:  67;

RHINELANDER    CLOUDY    62  37  39 SE9       29.74F
6HR MIN TEMP:  59; 6HR MAX TEMP:  67;

EAGLE RIVER    CLOUDY    59  32  36 SE7       29.74F
6HR MIN TEMP:  59; 6HR MAX TEMP:  66;

LAND O LAKES   CLOUDY    60  31  33 S7        29.76S
6HR MIN TEMP:  59; 6HR MAX TEMP:  66;

PHILLIPS       CLOUDY    61  34  35 SE7       29.68F
6HR MIN TEMP:  58; 6HR MAX TEMP:  65;

TOMAHAWK       CLOUDY    61  32  33 SE6       29.71F
6HR MIN TEMP:  60; 6HR MAX TEMP:  66;

MEDFORD        PTCLDY    61  35  38 SE9       29.69F
6HR MIN TEMP:  58; 6HR MAX TEMP:  64;

MERRILL        PTCLDY    63  35  35 SE7       29.73F
6HR MIN TEMP:  62; 6HR MAX TEMP:  66;

$$

WIZ029-030-035-036-043>047-250100-
CENTRAL WISCONSIN

CITY           SKY/WX    TMP DP  RH WIND       PRES   REMARKS
WAUSAU         CLOUDY    65  29  25 S14G21    29.71F
6HR MIN TEMP:  61; 6HR MAX TEMP:  66;

MOSINEE        MOCLDY    64  30  27 SE12      29.73F
MARSHFIELD     MOCLDY    64  32  30 S10       29.69F
6HR MIN TEMP:  63; 6HR MAX TEMP:  68;

STEVENS POINT  PTCLDY    65  30  26 S12       29.73F
6HR MIN TEMP:  62; 6HR MAX TEMP:  67;

WAUPACA        CLOUDY    65  33  30 SE13G18   29.76R
6HR MIN TEMP:  64; 6HR MAX TEMP:  73;

WAUTOMA        PTCLDY    68  34  28 SE12      29.74S
6HR MIN TEMP:  66; 6HR MAX TEMP:  72;

WISC RAPIDS    NOT AVBL
CAMP DOUGLAS   CLOUDY    68  30  24 S7        29.70F
$$

WIZ011>013-019>022-031-037>040-048>050-250100-
NORTHEAST WISCONSIN

CITY           SKY/WX    TMP DP  RH WIND       PRES   REMARKS
ANTIGO         PTCLDY    58  39  48 SE15G21   29.76S
6HR MIN TEMP:  58; 6HR MAX TEMP:  62;

SHAWANO        CLOUDY    64  34  32 SE12      29.78S
6HR MIN TEMP:  62; 6HR MAX TEMP:  69;

OCONTO         CLOUDY    49  40  71 NE3       29.81F
6HR MIN TEMP:  49; 6HR MAX TEMP:  55;

STURGEON BAY   CLOUDY    46  37  71 E12       29.83F
6HR MIN TEMP:  46; 6HR MAX TEMP:  54;

GREEN BAY      CLOUDY    62  34  35 SE15      29.79F
6HR MIN TEMP:  56; 6HR MAX TEMP:  68;

MANITOWOC      CLOUDY    57  29  34 S10       29.82F
6HR MIN TEMP:  51; 6HR MAX TEMP:  59;

APPLETON       MOCLDY    61  27  27 SE14      29.77F
CLINTONVILLE   CLOUDY    61  32  33 SE9       29.77R
OSHKOSH        CLOUDY    62  32  32 SE14      29.76F
6HR MIN TEMP:  59; 6HR MAX TEMP:  71;

$$

WIZ032>034-041-042-053>061-250100-
SOUTHWEST WISCONSIN

CITY           SKY/WX    TMP DP  RH WIND       PRES   REMARKS
LA CROSSE      CLOUDY    70  32  24 SE10      29.65S
6HR MIN TEMP:  70; 6HR MAX TEMP:  74;

SPARTA         CLOUDY    68  30  23 S9        29.69F
6HR MIN TEMP:  68; 6HR MAX TEMP:  72;

VIROQUA        CLOUDY    66  28  23 SE14      29.68F
6HR MIN TEMP:  66; 6HR MAX TEMP:  71;

BOSCOBEL       CLOUDY    73  24  16 VRB5      29.68F
6HR MIN TEMP:  71; 6HR MAX TEMP:  75;

PRAIRIE DU CHI CLOUDY    71  22  15 SE8       29.66F
6HR MIN TEMP:  70; 6HR MAX TEMP:  74;

PLATTEVILLE    PTCLDY    69  28  21 S13       29.70F
6HR MIN TEMP:  69; 6HR MAX TEMP:  73;

$$

WIZ056-057-062-063-064-067-068-250100-
SOUTH CENTRAL WISCONSIN

CITY           SKY/WX    TMP DP  RH WIND       PRES   REMARKS
REEDSBURG      PTCLDY    68  31  24 SE6       29.71F
6HR MIN TEMP:  67; 6HR MAX TEMP:  72;

BARABOO/DELLS  PTCLDY    67  25  20 S13       29.72F
6HR MIN TEMP:  67; 6HR MAX TEMP:  71;

LONE ROCK      PTCLDY    69  28  21 SE10      29.70F
6HR MIN TEMP:  69; 6HR MAX TEMP:  73;

MINERAL POINT  CLOUDY    68  25  19 SE12G17   29.72S
MADISON        MOCLDY    69  25  19 SE18      29.73F
6HR MIN TEMP:  67; 6HR MAX TEMP:  72;

MIDDLETON      PTCLDY    70  22  16 S14       29.73S
6HR MIN TEMP:  69; 6HR MAX TEMP:  74;

WATERTOWN      CLOUDY    64  33  30 SE12G21   29.76F
6HR MIN TEMP:  64; 6HR MAX TEMP:  72;

MONROE         CLEAR     68  30  24 SE13G23   29.73S
JANESVILLE     MOCLDY    72  27  18 SE13G20   29.74F
$$

WIZ051-052-058>065-066-070>072-250100-
SOUTHEAST WISCONSIN

CITY           SKY/WX    TMP DP  RH WIND       PRES   REMARKS
MILWAUKEE      MOCLDY    56  31  38 SE8       29.81F
6HR MIN TEMP:  56; 6HR MAX TEMP:  66;

WAUKESHA       NOT AVBL
MILWAUKEE/TIMM CLEAR     63  21  20 SE9       29.81F
RACINE         PTCLDY    55  33  43 SE6       29.82F
6HR MIN TEMP:  55; 6HR MAX TEMP:  65;

KENOSHA        CLOUDY    57  35  43 E9        29.80F
6HR MIN TEMP:  57; 6HR MAX TEMP:  68;

FOND DU LAC    CLOUDY    62  28  27 SE17      29.77F
6HR MIN TEMP:  62; 6HR MAX TEMP:  70;

SHEBOYGAN      CLOUDY    58  34  40 SE8       29.81F
6HR MIN TEMP:  58; 6HR MAX TEMP:  64;

WEST BEND      CLOUDY    59  30  33 SE8       29.80F
JUNEAU         CLOUDY    62  31  31 SE10      29.77F
6HR MIN TEMP:  62; 6HR MAX TEMP:  70;

$$

LSZ147-162-250100-
LAKE SUPERIOR

STATION/POSITION TIME  TEMP    WIND        PRES    WAVE
                       AIR SEA DIR/SP/G            HT/PER
                 (UTC) (F)     (DEG/KT/KT) (MB)    (FT/S)
DEVILS ISLAND    0000   37      60/ 28/ 30 1006.6F
PORT WING        2305   38      40/ 22/ 25 1006.1
SAXON HARBOR     2340   40     310/  7/  9 1005.4F
$$

LMZ867-665-643>646-250100-
LAKE MICHIGAN

STATION/POSITION TIME  TEMP    WIND        PRES    WAVE
                       AIR SEA DIR/SP/G            HT/PER
                 (UTC) (F)     (DEG/KT/KT) (MB)    (FT/S)
CHAMBERS ISLAND  2330   46      70/  5/  9 1010.5F
N MID LAKE BUOY  2350   40 37  100/  8/ 10 1012.5F   2/ 4
NORTHPORT PIER   2340   41     130/  5/  7 1011.2F
SISTER BAY       2221   49     110/ 13/ 18   N/A
KEWAUNEE LAKESHO 2354   42      50/  5/  7 1009



USA.gov is the U.S. government's official web portal to all federal, state and local government web resources and services.